Algona, IA

5:25 PM CDT on April 28, 2017 (GMT -0500)
Algona Municipal

Weather History for KAXA - October, 2010

Change the Weather History Date:

Saturday, October 9, 2010

  Actual Average Record
Temperature  
Mean Temperature 70 °F -  
Max Temperature 87 °F 63 °F 87 °F (2010)
Min Temperature 53 °F 41 °F 23 °F (2000)
Cooling Degree Days 5    
Growing Degree Days 20 (Base 50)    
Moisture  
Dew Point 47 °F    
Average Humidity 51    
Maximum Humidity 88    
Minimum Humidity 17    
Precipitation  
Precipitation 0.00 in - - ()
Sea Level Pressure  
Sea Level Pressure 29.92 in    
Wind  
Wind Speed 10 mph (South)    
Max Wind Speed 16 mph    
Max Gust Speed 23 mph    
Visibility 10 miles    
Events      
Averages and records for this station are not official NWS values.
T = Trace of Precipitation, MM = Missing Value Source: NWS Daily Summary

Daily Weather History Graph

Daily Weather History Graph

Search for Another Location

Airport or City:

Trip Planner

Search our weather history database for the weather conditions in past years. The results will help you decide how hot, cold, wet, or windy it might be!

Date:

Astronomy

Oct. 09, 2010 Rise Set
Actual Time 7:23 AM CDT 6:44 PM CDT
Civil Twilight 6:55 AM CDT 7:12 PM CDT
Nautical Twilight 6:22 AM CDT 7:45 PM CDT
Astronomical Twilight 5:49 AM CDT 8:18 PM CDT
Moon 9:51 AM CDT (10/9) 7:34 PM CDT (10/9)
Length of Visible Light 12h 17m
Length of Day
11h 20m
Waxing Crescent, 5% of the Moon is Illuminated
Oct 9
Waxing Crescent
Oct 14
First Quarter
Oct 22
Full
Oct 30
Last Quarter
Nov 5
New

Hourly Weather History & Observations

Time (CDT) Temp. Dew Point Humidity Pressure Visibility Wind Dir Wind Speed Gust Speed Precip Events Conditions
12:15 AM 64.4 °F 51.8 °F 64% 29.93 in 10.0 mi South 11.5 mph - N/A   Clear
12:35 AM 64.4 °F 51.8 °F 64% 29.93 in 10.0 mi South 10.4 mph - N/A   Clear
12:55 AM 62.6 °F 51.8 °F 68% 29.92 in 10.0 mi South 10.4 mph - N/A   Clear
1:15 AM 62.6 °F 51.8 °F 68% 29.92 in 10.0 mi South 10.4 mph - N/A   Clear
1:35 AM 60.8 °F 51.8 °F 72% 29.92 in 10.0 mi South 9.2 mph - N/A   Clear
1:55 AM 60.8 °F 51.8 °F 72% 29.92 in 10.0 mi South 9.2 mph - N/A   Clear
2:15 AM 60.8 °F 50.0 °F 68% 29.92 in 10.0 mi SSW 8.1 mph - N/A   Clear
2:35 AM 60.8 °F 50.0 °F 68% 29.92 in 10.0 mi SSW 8.1 mph - N/A   Clear
2:55 AM 60.8 °F 50.0 °F 68% 29.92 in 10.0 mi SSW 8.1 mph - N/A   Clear
3:15 AM 60.8 °F 50.0 °F 68% 29.92 in 10.0 mi SSW 8.1 mph - N/A   Clear
3:35 AM 60.8 °F 50.0 °F 68% 29.91 in 10.0 mi SSW 8.1 mph - N/A   Clear
3:55 AM 60.8 °F 50.0 °F 68% 29.92 in 10.0 mi South 6.9 mph - N/A   Clear
4:15 AM 59.0 °F 50.0 °F 72% 29.92 in 10.0 mi South 6.9 mph - N/A   Clear
4:35 AM 59.0 °F 50.0 °F 72% 29.93 in 10.0 mi SSW 8.1 mph - N/A   Clear
4:55 AM 59.0 °F 50.0 °F 72% 29.93 in 10.0 mi South 5.8 mph - N/A   Clear
5:15 AM 55.4 °F 50.0 °F 82% 29.93 in 10.0 mi South 6.9 mph - N/A   Scattered Clouds
5:35 AM 57.2 °F 50.0 °F 77% 29.93 in 10.0 mi South 5.8 mph - N/A   Scattered Clouds
5:55 AM 55.4 °F 50.0 °F 82% 29.93 in 10.0 mi South 6.9 mph - N/A   Clear
6:15 AM 55.4 °F 50.0 °F 82% 29.93 in 10.0 mi South 8.1 mph - N/A   Clear
6:35 AM 55.4 °F 50.0 °F 82% 29.93 in 10.0 mi South 8.1 mph - N/A   Clear
6:55 AM 55.4 °F 50.0 °F 82% 29.94 in 10.0 mi South 9.2 mph - N/A   Clear
7:15 AM 55.4 °F 50.0 °F 82% 29.94 in 10.0 mi South 8.1 mph - N/A   Clear
7:35 AM 53.6 °F 50.0 °F 88% 29.94 in 10.0 mi South 9.2 mph - N/A   Clear
7:55 AM 53.6 °F 50.0 °F 88% 29.94 in 10.0 mi South 9.2 mph - N/A   Clear
8:15 AM 55.4 °F 50.0 °F 82% 29.94 in 10.0 mi South 6.9 mph - N/A   Clear
8:35 AM 59.0 °F 50.0 °F 72% 29.93 in 10.0 mi South 8.1 mph - N/A   Clear
8:55 AM 60.8 °F 51.8 °F 72% 29.93 in 10.0 mi South 5.8 mph - N/A   Clear
9:15 AM 64.4 °F 50.0 °F 59% 29.94 in 10.0 mi South 8.1 mph - N/A   Clear
9:35 AM 64.4 °F 51.8 °F 64% 29.94 in 10.0 mi South 8.1 mph - N/A   Clear
9:55 AM 68.0 °F 51.8 °F 56% 29.95 in 10.0 mi South 4.6 mph - N/A   Clear
10:15 AM 69.8 °F 51.8 °F 53% 29.95 in 10.0 mi South 8.1 mph - N/A   Clear
10:35 AM 71.6 °F 51.8 °F 50% 29.94 in 10.0 mi SE 6.9 mph - N/A   Clear
10:55 AM 73.4 °F 51.8 °F 47% 29.94 in 10.0 mi SE 6.9 mph - N/A   Clear
11:35 AM 77.0 °F 50.0 °F 39% 29.94 in 10.0 mi SSE 9.2 mph - N/A   Clear
11:55 AM 80.6 °F 50.0 °F 34% 29.94 in 10.0 mi SSE 10.4 mph - N/A   Clear
12:15 PM 82.4 °F 48.2 °F 30% 29.93 in 10.0 mi SE 8.1 mph - N/A   Clear
12:35 PM 82.4 °F 46.4 °F 28% 29.92 in 10.0 mi SSE 11.5 mph - N/A   Clear
12:55 PM 86.0 °F 46.4 °F 25% 29.93 in 10.0 mi SSE 13.8 mph - N/A   Clear
1:15 PM 86.0 °F 44.6 °F 23% 29.93 in 10.0 mi South 13.8 mph 18.4 mph N/A   Clear
1:35 PM 87.8 °F 44.6 °F 22% 29.92 in 10.0 mi South 15.0 mph 19.6 mph N/A   Clear
1:55 PM 87.8 °F 44.6 °F 22% 29.92 in 10.0 mi South 15.0 mph 20.7 mph N/A   Clear
2:15 PM 87.8 °F 42.8 °F 21% 29.91 in 10.0 mi SSW 15.0 mph 21.9 mph N/A   Clear
2:35 PM 87.8 °F 42.8 °F 21% 29.91 in 10.0 mi SSW 12.7 mph - N/A   Clear
2:55 PM 87.8 °F 41.0 °F 19% 29.90 in 10.0 mi South 16.1 mph 21.9 mph N/A   Clear
3:15 PM 87.8 °F 42.8 °F 21% 29.90 in 10.0 mi South 15.0 mph 20.7 mph N/A   Clear
3:35 PM 87.8 °F 41.0 °F 19% 29.90 in 10.0 mi SSW 13.8 mph 20.7 mph N/A   Clear
3:55 PM 87.8 °F 37.4 °F 17% 29.90 in 10.0 mi South 16.1 mph 23.0 mph N/A   Clear
4:15 PM 87.8 °F 39.2 °F 18% 29.89 in 10.0 mi SSW 13.8 mph 20.7 mph N/A   Clear
4:35 PM 86.0 °F 39.2 °F 19% 29.89 in 10.0 mi SSW 15.0 mph 20.7 mph N/A   Clear
4:55 PM 86.0 °F 39.2 °F 19% 29.89 in 10.0 mi South 13.8 mph - N/A   Clear
5:15 PM 86.0 °F 39.2 °F 19% 29.89 in 10.0 mi South 15.0 mph - N/A   Clear
5:35 PM 84.2 °F 41.0 °F 22% 29.89 in 10.0 mi South 11.5 mph - N/A   Clear
5:55 PM 82.4 °F 41.0 °F 23% 29.89 in 10.0 mi South 9.2 mph - N/A   Clear
6:15 PM 78.8 °F 42.8 °F 28% 29.89 in 10.0 mi South 8.1 mph - N/A   Clear
6:35 PM 77.0 °F 42.8 °F 29% 29.90 in 10.0 mi South 6.9 mph - N/A   Clear
6:55 PM 73.4 °F 42.8 °F 33% 29.90 in 7.0 mi South 8.1 mph - N/A   Clear
7:15 PM 69.8 °F 42.8 °F 38% 29.91 in 7.0 mi South 6.9 mph - N/A   Clear
7:35 PM 68.0 °F 42.8 °F 40% 29.91 in 7.0 mi South 6.9 mph - N/A   Clear
7:55 PM 68.0 °F 42.8 °F 40% 29.91 in 10.0 mi South 6.9 mph - N/A   Clear
8:15 PM 66.2 °F 42.8 °F 43% 29.92 in 7.0 mi South 8.1 mph - N/A   Clear
8:35 PM 64.4 °F 42.8 °F 45% 29.92 in 7.0 mi SSE 5.8 mph - N/A   Clear
8:55 PM 64.4 °F 42.8 °F 45% 29.92 in 10.0 mi South 6.9 mph - N/A   Clear
9:35 PM 69.8 °F 42.8 °F 38% 29.93 in 10.0 mi South 10.4 mph - N/A   Clear
9:55 PM 69.8 °F 42.8 °F 38% 29.93 in 10.0 mi South 10.4 mph - N/A   Clear
10:15 PM 69.8 °F 42.8 °F 38% 29.93 in 10.0 mi South 10.4 mph - N/A   Clear
10:35 PM 69.8 °F 42.8 °F 38% 29.93 in 10.0 mi South 11.5 mph - N/A   Clear
10:55 PM 68.0 °F 42.8 °F 40% 29.93 in 10.0 mi South 10.4 mph - N/A   Clear
11:15 PM 68.0 °F 44.6 °F 43% 29.93 in 10.0 mi South 10.4 mph - N/A   Clear
11:35 PM 64.4 °F 44.6 °F 49% 29.93 in 10.0 mi South 9.2 mph - N/A   Clear
11:55 PM 64.4 °F 44.6 °F 49% 29.93 in 10.0 mi South 9.2 mph - N/A   Clear